Regional Weather Roundup
Issued by NWS

Home | Current Version | Previous Version | Text Only | Print | Product List | Glossary On
Versions: 1 2 3 4 5 6 7 8 9 10 11 12 13 14 15 16 17 18 19 20 21 22 23 24 25 26 27 28 29 30 31 32 33 34 35 36 37 38 39 40 41 42 43 44 45 46 47 48 49 50
163
ASUS44 KLIX 202301
RWRLA
LOUISIANA WEATHER ROUNDUP
NATIONAL WEATHER SERVICE NEW ORLEANS LA
500 PM CST SAT DEC 20 2014

NOTE: "FAIR" INDICATES FEW OR NO CLOUDS BELOW 12,000 FEET WITH NO
      SIGNIFICANT WEATHER AND/OR OBSTRUCTIONS TO VISIBILITY.
      SKY/WX - SKY CONDITION AND SIGNIFICANT WEATHER.
      TMP - AIR TEMPERATURE.    DP   - DEWPOINT TEMPERATURE.
      RH  - RELATIVE HUMIDITY.  PRES - PRESSURE.
      HX  - HEAT INDEX.         WCI  - WIND CHILL INDEX.

*  THESE STATIONS ARE NOT NWS OR FAA STATIONS AND ARE NOT UNDER
   NWS QUALITY CONTROL.

LAZ040-048-061>063-065-066-069-210000-
SOUTHEAST LOUISIANA

CITY           SKY/WX    TMP DP  RH WIND       PRES   REMARKS
N.O. AUDUBON     N/A     52  49  90 MISG        N/A
N.O. INTL ARPT CLOUDY    52  47  83 NE16      30.12S
N.O. LAKEFRONT CLOUDY    54  48  80 N16       30.13R
N.O. DOWNTOWN* CLOUDY    54  45  71 N8        30.12S
SLIDELL        CLOUDY    52  47  83 N9        30.13R
BATON ROUGE    CLOUDY    50  46  86 NE7       30.15R
BOOTHVILLE     CLOUDY    54  52  93 N12G20    30.09S
BELLE CHASSE   CLOUDY    54  49  83 NE7       30.11R
BOGALUSA*        N/A     52  47  81 N6        30.16R
GALLIANO*      NOT AVBL
NEW ROADS*     NOT AVBL
GONZALES*      NOT AVBL
HAMMOND*       NOT AVBL
HOUMA*         CLOUDY    52  48  87 N9        30.11R
PORT FOURCHON* CLOUDY    55  52  88 NE13G21   30.12R

$$

LAZ041-044-053-054-210000-
SOUTHWEST LOUISIANA

CITY           SKY/WX    TMP DP  RH WIND       PRES   REMARKS
LAKE CHARLES   PTCLDY    56  46  69 NE10      30.13R
LAFAYETTE      CLOUDY    51  47  86 NE8       30.14S
PATTERSON      CLOUDY    52  46  82 NE12      30.13R
SALT POINT       N/A     54  49  83 VRB6      30.11R
NEW IBERIA     CLOUDY    51  48  89 N15       30.14R
CHENAULT AIRPK PTCLDY    55  46  71 NE8       30.13S

$$

LAZ027-028-210000-
CENTRAL LOUISIANA

CITY           SKY/WX    TMP DP  RH WIND       PRES   REMARKS
FORT POLK      PTCLDY    50  44  80 N6        30.16R
ALEXANDRIA INT MOCLDY    54  44  69 N7        30.14S
ALEXANDRIA     PTCLDY    52  44  74 CALM      30.15S

$$

LAZ001-002-210000-
NORTHWEST LOUISIANA

CITY           SKY/WX    TMP DP  RH WIND       PRES   REMARKS
SHREVEPORT     CLOUDY    47  42  83 N3        30.20R
BARKSDALE AFB  NOT AVBL
DTN SHREVEPORT CLOUDY    46  40  79 CALM      30.21S

$$

LAZ014-016-210000-
NORTHEAST LOUISIANA

CITY           SKY/WX    TMP DP  RH WIND       PRES   REMARKS
MONROE         CLEAR     51  42  71 NE7       30.19S
TALLULAH       CLEAR     51  40  65 N6        30.17R

$$




USA.gov is the U.S. government's official web portal to all federal, state and local government web resources and services.